Theta_e
325 323 326 327 329 327 329 327 326 331 329 329 330 329 328 326 328 328 327 326 326 325 324 321 322 323 324 325 326 327 328 328 326 323 324 326 322 322 326 327 327 328 328 326 324 319 316 314 318 326 329 329 330 331 331 332 331 331 328 330 332 335 335
324 325 324 324 326 328 329 331 328 325 325 327 326 326 326 326 325 324 323 322 319 319 319 318 320 322 323 324 324 324 323 324 326 327 325 324 324 322 322 324 325 326 325 326 324 321 316 315 316 319 321 328 328 329 330 332 333 334 332 332 334 332 330
323 323 323 324 325 328 326 327 328 327 324 327 325 323 323 321 324 323 321 321 322 320 319 319 320 322 322 321 322 323 324 323 322 321 321 322 321 321 322 322 321 323 322 322 320 319 318 318 314 315 320 320 321 327 330 331 331 333 336 334 333 334 334
322 323 322 323 324 326 324 325 327 325 326 324 326 325 324 323 323 324 324 321 322 322 321 319 320 318 321 323 321 321 320 321 321 321 320 320 322 317 317 316 315 315 315 313 313 316 315 313 312 312 311 312 320 320 327 332 332 335 336 335 334 334 333
323 323 321 321 322 323 324 324 326 324 323 325 325 324 325 323 323 323 324 323 323 324 323 323 322 320 320 320 322 322 321 321 321 320 318 317 316 319 317 317 318 319 316 313 314 316 313 312 312 308 307 308 310 311 324 329 331 328 330 332 333 333 333
324 324 322 323 323 324 324 324 323 322 322 321 324 323 324 326 325 324 323 322 322 322 322 319 318 320 320 320 319 318 318 318 317 318 316 316 316 315 316 317 315 315 314 316 316 315 316 316 314 309 310 309 307 307 308 311 319 327 327 326 330 332 332
325 327 324 323 324 325 325 325 324 324 321 323 323 324 324 325 325 326 325 323 322 322 323 323 322 322 323 316 319 319 319 320 320 318 318 317 316 317 316 315 314 314 316 317 315 317 315 313 311 310 309 310 309 307 308 307 309 307 310 315 319 320 323
326 326 326 326 325 326 325 324 326 325 323 322 322 324 323 326 326 325 325 323 323 323 322 322 323 321 321 318 319 320 319 319 317 317 316 316 316 315 315 315 318 313 315 311 315 314 312 312 311 311 309 306 306 308 308 309 309 308 309 312 315 316 319
325 325 326 325 326 330 326 325 327 326 326 324 323 324 323 326 324 324 323 323 323 322 322 321 321 320 321 319 318 319 317 319 320 319 317 317 317 315 314 315 316 312 312 313 314 313 313 314 314 313 310 309 305 302 305 305 308 309 312 309 312 313 314
325 325 324 327 325 328 330 327 327 328 328 326 324 324 322 325 324 324 321 322 323 322 322 321 321 321 321 320 319 319 318 319 317 315 317 316 316 315 316 315 315 311 311 315 314 314 314 314 314 313 313 310 310 305 302 302 305 306 309 311 307 310 315
326 326 325 328 326 325 330 328 329 328 329 327 325 324 322 324 324 323 322 321 322 323 322 321 321 320 321 320 319 319 318 318 317 317 316 314 315 315 314 313 314 312 312 315 315 316 317 314 313 314 312 312 311 307 306 303 303 306 307 311 312 310 313
330 329 328 329 327 325 326 327 328 327 329 327 325 324 322 323 323 322 322 321 320 320 321 321 321 319 319 319 318 318 318 318 317 316 316 316 316 316 314 314 312 313 312 312 313 317 315 315 313 310 310 311 313 311 309 307 302 307 311 308 310 312 311
330 332 333 328 330 327 326 327 327 326 326 326 327 324 322 322 322 321 321 321 320 319 319 319 319 318 319 318 317 318 316 318 315 314 313 315 314 316 313 314 312 311 312 311 311 312 313 313 315 312 311 312 310 312 311 308 304 304 310 310 310 311 312
332 332 332 331 330 330 330 330 330 328 325 325 326 325 322 321 321 321 320 320 319 319 318 318 318 317 316 317 315 317 315 314 314 314 314 313 313 313 312 311 311 313 313 312 311 310 309 310 312 312 311 310 309 310 307 306 304 304 307 311 310 309 310
330 330 331 331 328 328 329 330 330 331 329 328 324 325 323 322 322 321 319 319 319 319 318 317 317 317 316 316 315 319 314 313 313 313 312 311 312 314 312 311 310 312 310 309 310 308 307 306 306 305 307 310 306 308 308 307 304 303 302 306 307 309 308
329 329 329 326 328 328 330 330 330 327 327 327 327 324 324 323 322 321 320 320 319 319 318 317 317 317 316 316 314 316 315 313 312 313 311 312 310 310 311 312 311 312 314 311 310 310 311 308 307 306 307 307 307 308 307 307 306 304 303 304 307 306 307
324 327 326 325 325 328 327 328 330 329 329 328 325 327 327 323 322 321 320 319 319 318 318 318 317 317 316 315 315 314 313 313 313 313 311 310 309 310 310 311 310 311 310 309 310 309 308 309 309 307 304 304 305 305 307 308 309 305 305 304 306 306 307
323 325 325 324 326 328 326 325 328 326 327 328 327 324 322 322 321 320 321 320 319 319 319 318 317 317 317 317 316 315 313 312 313 312 312 312 314 310 311 309 310 310 309 307 308 308 309 307 306 306 305 304 304 306 306 306 305 304 302 301 302 304 305
324 324 324 322 322 324 327 326 324 327 325 323 321 321 319 318 319 319 319 320 320 319 319 318 317 317 316 316 316 315 314 313 313 312 311 312 310 310 310 310 311 308 308 308 307 308 307 307 307 306 305 305 305 305 305 305 305 304 304 302 302 302 303
325 324 324 323 323 324 325 326 323 324 324 322 322 321 319 321 321 320 320 319 319 320 320 319 318 317 317 316 315 315 314 313 313 312 312 310 310 310 309 309 309 309 307 307 307 307 306 306 306 304 304 303 302 302 301 302 302 301 302 301 302 302 302
314 315 319 323 325 325 325 324 321 322 323 324 322 321 322 322 320 319 320 320 320 320 320 320 319 318 318 317 315 314 314 313 311 312 312 311 311 309 309 309 309 308 308 305 302 300 301 301 301 299 299 300 300 300 299 300 300 300 299 300 299 299 300
318 317 315 315 318 319 325 324 323 321 321 320 320 320 321 321 320 320 320 321 321 321 319 318 320 318 317 316 316 314 313 312 312 311 310 310 309 309 308 308 307 307 304 302 300 300 300 300 298 296 299 299 299 299 298 298 299 298 298 298 298 300 298
315 315 315 315 316 317 316 320 324 322 321 320 320 319 319 320 319 319 319 320 320 320 319 319 315 310 311 316 315 314 314 313 311 311 309 308 308 307 308 307 309 307 304 301 298 295 293 294 297 300 298 297 297 297 296 295 295 295 296 295 295 296 295
314 314 315 316 317 319 319 321 322 324 322 321 321 320 319 319 319 318 318 316 315 316 317 318 307 301 301 306 314 314 312 312 311 310 308 307 305 305 306 305 305 302 301 300 299 294 294 293 293 294 295 296 298 298 296 295 294 294 294 294 295 295 294
314 315 316 314 316 317 320 322 322 323 322 322 323 323 322 321 321 320 320 317 316 315 318 309 301 298 299 301 307 314 313 311 310 309 307 307 306 305 305 305 306 306 304 303 302 299 295 294 293 293 292 292 292 292 294 295 294 293 294 293 293 293 294
310 314 314 314 316 315 315 316 317 320 320 321 322 320 320 321 321 321 320 317 316 318 313 296 297 297 297 299 301 307 309 309 308 308 307 307 306 305 305 306 306 306 305 306 305 302 300 299 295 293 293 293 293 292 290 290 292 296 296 294 293 293 294
312 314 315 315 315 313 312 312 316 319 319 320 319 319 320 320 321 321 320 319 318 316 306 296 295 296 296 296 298 303 308 308 306 306 307 306 308 308 306 305 303 303 303 302 301 301 301 302 301 298 296 295 296 297 293 291 291 291 293 295 295 294 296
313 312 313 312 313 312 312 314 313 312 314 318 317 316 317 317 319 319 319 319 316 308 306 294 294 294 294 294 296 299 308 309 306 307 307 307 305 306 305 305 303 302 301 302 304 303 302 301 299 299 298 297 296 296 297 297 297 295 295 295 294 295 296
314 314 313 312 310 310 311 312 312 313 314 316 317 317 317 318 317 318 319 318 309 306 301 292 293 293 292 293 296 302 305 304 304 304 304 306 305 304 305 303 302 301 301 301 296 294 297 300 298 297 296 295 295 295 297 298 296 296 298 299 298 298 298
313 313 312 311 310 311 311 312 312 312 311 313 314 315 315 316 316 317 317 315 306 303 297 293 291 291 292 294 297 301 304 302 302 303 303 305 304 304 304 303 302 301 302 300 294 291 292 295 297 295 295 294 295 295 295 298 296 294 294 293 293 293 293
310 312 311 309 309 311 311 310 310 312 310 311 312 313 315 314 315 315 315 313 303 300 297 293 291 291 293 294 297 302 302 302 303 302 302 304 304 302 303 307 305 301 301 301 290 290 290 294 296 295 294 294 293 293 294 296 297 297 295 294 293 293 292
311 311 310 309 311 310 310 309 309 310 309 310 311 313 313 312 313 311 306 303 301 299 295 292 291 290 291 292 298 303 302 300 300 300 301 302 302 303 303 303 301 298 296 291 288 289 288 292 294 294 294 293 292 292 293 294 293 293 292 292 292 293 293
310 309 308 310 311 311 311 310 310 309 309 309 309 311 312 311 307 302 303 301 300 297 294 293 293 290 290 289 290 297 300 300 299 299 299 298 299 301 300 299 294 288 289 288 288 288 288 289 291 291 291 290 290 290 292 291 291 291 290 290 290 291 291
309 310 310 310 311 311 311 310 310 310 310 310 311 310 308 305 304 302 300 300 298 297 295 293 292 290 290 290 289 293 297 297 297 297 296 295 295 296 295 295 292 289 288 288 288 287 288 289 288 290 289 289 290 292 289 288 289 290 289 289 289 289 290
309 310 311 312 312 311 311 311 310 310 310 309 310 308 306 303 302 300 299 297 296 295 295 294 292 290 290 290 288 290 296 296 294 295 293 293 293 294 294 295 292 290 288 288 288 288 288 288 288 290 289 289 289 288 289 290 289 289 289 289 288 288 289
308 310 309 310 309 310 311 310 310 310 310 310 308 305 303 301 299 298 298 297 296 295 294 293 292 291 289 289 289 289 288 293 290 295 296 293 293 294 295 296 291 290 288 288 288 288 288 288 288 289 288 288 288 288 288 288 288 288 288 288 288 288 288
306 308 308 308 308 308 308 309 309 309 308 308 306 303 301 300 298 297 296 296 296 295 295 293 291 291 290 289 289 289 288 288 290 295 296 295 293 294 295 296 292 289 289 289 289 289 289 288 289 288 288 288 288 288 288 288 288 289 288 288 288 288 288
Wind_Speed
5 5 4 4 4 4 3 3 4 2 3 3 2 2 3 4 3 3 5 6 6 3 5 7 5 5 4 4 5 3 4 4 5 5 2 2 2 0 1 1 1 1 1 2 2 2 2 3 2 2 2 3 3 3 2 3 2 1 1 1 1 1 3
6 5 4 4 4 3 2 2 4 4 5 4 3 3 3 3 3 4 5 5 6 6 6 6 5 5 5 4 5 5 4 4 3 2 3 3 4 3 3 3 3 2 0 1 4 2 2 1 3 2 2 2 2 3 4 4 4 2 4 4 2 1 3
5 5 4 5 4 3 3 3 3 4 4 2 4 4 4 4 3 4 4 4 3 4 3 3 4 4 3 4 4 5 4 5 3 5 4 3 4 3 2 1 0 1 3 2 1 1 2 5 3 3 2 3 3 3 5 5 4 4 3 3 2 4 5
6 5 7 5 4 3 3 3 2 3 3 4 3 3 4 3 4 3 3 3 3 4 5 4 4 4 3 3 4 4 4 4 4 4 4 5 3 4 4 5 4 3 2 3 4 2 2 2 4 4 6 3 4 5 3 5 6 6 7 6 6 7 7
6 5 7 6 5 4 4 3 3 4 4 3 3 3 2 3 3 2 2 3 3 3 3 3 3 3 4 4 4 3 4 5 4 5 5 5 6 3 4 4 2 4 6 5 4 4 4 3 3 4 5 6 6 6 2 2 3 5 7 8 9 9 9
6 5 5 5 5 5 4 4 5 4 4 4 2 3 2 2 2 1 2 3 3 3 3 3 4 4 4 4 4 4 4 4 4 4 4 4 4 4 4 3 5 6 5 4 4 2 1 2 3 3 3 5 4 5 5 2 3 6 8 8 8 9 8
5 5 5 5 5 4 5 4 4 4 5 3 3 3 3 3 2 1 2 3 3 3 2 3 2 1 2 4 3 4 3 3 4 4 4 4 4 4 4 5 3 5 2 4 2 2 2 4 4 3 4 4 3 5 5 3 4 4 3 5 8 7 9
5 4 6 5 4 4 5 5 3 5 5 5 5 4 4 2 3 2 2 2 2 2 2 1 2 1 3 4 4 3 4 3 4 4 3 3 3 3 3 3 2 5 5 5 3 5 4 5 3 3 4 5 4 4 4 6 6 5 6 7 6 6 7
5 5 4 5 4 3 4 4 3 4 5 5 5 5 4 3 4 3 3 2 2 2 1 1 2 2 1 4 3 3 3 3 3 4 4 3 3 3 2 3 3 4 4 2 3 5 4 3 4 4 5 4 4 5 5 5 5 6 10 8 6 9 7
7 5 5 5 7 3 3 4 3 3 4 5 5 5 4 3 4 3 3 3 2 1 1 1 1 2 1 2 3 2 3 3 4 4 3 3 3 3 2 2 2 5 3 3 4 3 2 2 3 3 3 3 3 2 3 4 5 4 7 8 4 5 10
6 6 5 4 7 5 2 4 3 2 3 4 5 5 4 3 3 4 3 4 3 2 3 2 1 2 0 1 2 2 3 3 3 2 2 4 3 3 2 2 3 5 2 2 2 0 1 1 2 1 1 1 1 2 3 4 4 3 5 6 6 7 8
4 4 4 4 6 6 4 3 3 3 3 4 5 4 4 3 4 4 4 4 4 4 3 3 2 3 2 3 1 2 2 1 2 3 2 2 2 2 1 2 3 3 3 3 2 1 1 1 2 3 3 3 2 2 2 2 3 2 3 5 5 7 7
3 2 2 3 1 4 4 3 3 4 4 4 4 6 4 3 4 4 4 4 5 4 4 3 3 4 3 3 2 2 3 3 3 3 3 3 3 3 3 3 2 2 3 3 3 4 1 1 2 0 2 2 2 0 0 2 3 5 3 3 4 5 6
3 3 2 2 2 3 2 2 2 3 4 3 3 5 5 5 5 5 5 5 5 5 5 4 4 4 4 3 4 3 4 3 3 3 3 2 1 0 2 2 2 3 1 1 3 4 4 2 2 4 4 3 3 2 2 2 3 5 3 3 4 5 6
2 0 2 0 1 3 2 2 2 0 0 2 4 4 5 4 5 6 6 6 5 6 5 5 5 4 5 4 5 3 5 3 3 3 4 3 3 2 1 1 3 3 4 3 2 3 4 4 5 4 2 3 3 3 3 3 2 3 5 3 4 4 6
1 3 1 4 1 0 0 2 0 2 2 1 2 4 4 4 4 5 5 5 6 6 6 6 5 5 5 5 5 4 4 4 4 3 3 3 3 3 2 1 2 2 2 0 1 2 2 3 3 4 4 3 3 2 2 2 2 3 5 5 3 5 4
7 5 5 3 3 1 3 2 1 1 1 1 2 1 3 4 5 5 5 6 6 5 6 5 6 6 6 5 5 5 5 4 4 4 4 3 3 5 3 3 2 1 2 2 0 1 2 2 1 2 4 4 4 4 3 2 2 3 3 4 2 4 4
3 3 3 4 3 4 1 6 2 2 3 2 1 4 4 4 5 6 5 6 7 6 6 6 6 6 5 4 4 4 4 4 4 4 4 4 2 3 3 2 1 1 2 0 0 1 1 4 3 3 3 3 4 4 4 4 5 5 5 6 6 4 4
8 6 5 3 2 1 0 2 3 4 6 4 1 3 4 5 5 7 8 8 8 8 7 7 7 7 6 4 4 4 4 4 4 4 4 3 4 2 1 2 2 1 1 1 0 2 1 1 2 2 3 3 4 4 3 4 4 4 4 5 4 6 4
6 3 4 5 5 6 6 6 4 4 4 6 5 5 4 1 5 10 10 8 8 7 6 5 6 6 7 6 6 5 5 4 4 3 3 3 3 4 3 2 1 1 1 0 0 1 3 3 2 3 3 3 4 4 5 4 5 5 5 5 5 5 6
6 6 3 1 3 5 6 7 8 6 6 6 6 7 5 4 9 10 8 5 5 8 9 7 7 6 7 8 6 6 6 4 4 3 3 3 3 3 3 2 2 2 1 4 4 3 3 2 2 2 3 3 3 4 4 4 4 4 5 5 5 5 4
1 1 2 3 2 4 4 7 7 8 9 8 7 6 5 5 7 10 8 4 3 4 6 9 8 10 7 7 6 7 7 6 4 4 3 2 2 2 2 2 2 2 7 7 7 5 4 2 0 1 2 3 4 4 4 4 5 5 5 5 6 5 5
3 4 6 6 6 7 7 6 8 8 8 8 7 6 6 7 8 7 5 3 2 2 4 7 11 19 14 8 6 6 6 5 5 4 4 3 3 3 2 3 3 10 9 8 7 6 5 4 3 2 1 1 1 2 2 3 4 4 5 6 6 5 6
6 6 6 6 6 6 6 6 6 8 8 7 7 8 8 9 9 7 7 6 7 6 5 6 12 12 15 14 8 7 7 5 4 4 4 3 4 3 3 3 4 7 7 5 4 7 6 7 7 7 7 5 3 1 1 3 3 3 5 5 5 6 6
2 2 2 3 2 2 2 1 1 2 2 6 9 7 8 8 8 8 8 8 8 8 7 8 9 8 11 11 9 6 6 5 4 3 4 4 4 4 4 4 3 4 3 3 3 5 7 9 10 10 9 8 8 8 7 5 4 4 4 5 6 6 6
2 2 1 1 3 3 3 3 3 2 3 3 2 5 5 4 4 4 7 10 11 9 5 8 12 11 10 13 14 9 6 4 4 3 3 3 3 3 4 3 2 3 4 10 6 4 5 7 11 11 10 9 8 9 10 12 12 9 5 6 6 8 6
2 1 1 1 2 3 3 3 3 2 2 1 3 3 3 3 3 3 3 4 6 5 6 9 12 12 12 13 14 10 6 6 4 3 3 4 2 1 2 1 1 2 2 4 3 3 4 4 4 5 5 5 6 9 12 15 16 16 13 9 8 9 6
2 2 2 2 2 3 3 3 3 3 4 3 2 3 4 4 3 3 3 3 3 5 5 9 12 13 13 13 13 11 3 3 5 2 2 3 2 0 0 1 1 1 1 1 2 1 1 0 0 0 0 1 3 4 4 4 6 8 9 8 9 10 10
1 1 2 2 3 3 3 3 3 4 3 3 3 2 3 2 4 3 3 2 7 6 5 8 11 13 13 13 12 7 4 4 3 2 2 1 1 2 1 1 2 3 3 3 5 6 3 1 1 1 2 3 4 4 4 6 9 8 6 6 7 9 9
1 2 2 2 3 3 3 3 3 3 4 3 3 2 3 2 1 2 3 2 7 6 6 5 10 13 13 13 9 6 4 4 2 1 1 1 2 2 3 3 3 4 4 1 7 8 7 5 2 3 4 4 4 4 5 5 8 10 11 12 14 15 15
2 2 2 2 3 3 3 3 3 3 4 3 3 3 3 3 2 3 3 2 9 8 6 5 9 13 14 12 8 5 3 3 2 2 3 3 3 4 5 11 5 3 4 2 9 5 4 2 2 3 3 5 5 5 5 4 4 5 9 10 10 10 10
2 2 2 3 3 3 3 4 4 4 5 5 4 3 2 3 2 6 8 9 9 9 7 5 7 12 13 11 7 2 2 3 4 4 4 4 4 3 2 4 9 3 8 9 10 9 8 6 2 3 4 4 6 6 6 5 5 5 5 6 7 8 9
3 4 4 3 3 3 3 4 4 4 5 5 4 3 3 1 7 6 6 7 7 9 9 5 6 10 11 10 8 5 3 2 3 3 3 3 3 2 3 5 10 11 12 13 10 8 7 6 3 3 4 4 6 9 4 5 7 8 9 9 10 9 10
3 3 3 3 3 3 3 3 4 4 4 5 3 3 7 7 6 6 6 5 6 6 8 9 6 8 10 9 9 7 4 5 4 4 5 5 4 4 4 4 4 8 10 8 7 4 3 1 0 1 3 4 6 7 8 8 8 9 8 7 7 7 7
3 3 3 3 2 3 3 3 4 4 5 4 2 6 4 6 6 5 6 5 6 7 7 9 6 7 9 8 7 7 4 5 4 3 4 4 4 4 4 3 4 6 8 5 3 1 3 4 6 3 5 9 11 12 9 6 6 6 6 6 6 6 6
4 3 3 3 3 3 3 3 4 5 4 4 4 7 6 5 6 6 6 6 6 7 7 6 9 7 7 7 5 6 6 4 6 2 1 2 3 3 4 2 6 5 3 4 4 5 6 8 6 6 11 11 10 10 7 5 6 6 6 6 6 7 7
5 4 4 4 4 3 3 3 3 4 4 2 6 5 5 4 5 6 6 6 6 6 6 5 6 8 7 7 5 4 2 2 3 1 1 2 3 5 4 3 1 2 2 1 5 7 8 9 7 10 11 11 12 10 5 6 6 6 6 6 7 7 7
Wind_Direction
115 112 112 99 96 94 114 122 122 104 90 92 73 78 90 57 26 32 19 20 2 47 79 62 54 55 48 51 45 60 101 114 121 128 149 87 77 8 22 314 317 334 79 89 101 122 147 288 294 259 238 218 210 232 234 271 264 191 232 250 162 81 261
115 122 121 124 114 107 117 108 65 82 53 42 71 62 65 65 64 46 33 33 25 23 58 58 53 49 53 44 40 44 53 53 54 109 126 153 149 139 206 234 234 203 120 146 122 153 157 170 263 242 271 208 206 230 213 201 228 192 199 235 174 174 261
134 145 134 125 121 153 114 84 113 101 116 95 42 45 52 55 41 57 59 39 36 53 77 104 107 83 66 52 47 43 34 61 46 36 39 56 65 39 2 13 347 219 156 180 132 146 273 234 255 285 231 250 286 254 204 193 196 229 207 214 222 216 224
151 145 132 137 140 142 131 130 131 109 97 91 104 55 58 63 47 39 45 66 50 26 41 56 70 97 106 105 97 70 56 60 45 43 43 29 47 57 24 28 43 41 66 33 38 14 343 11 351 333 331 287 228 250 221 186 187 191 199 202 209 214 217
153 147 143 149 148 149 138 156 120 119 103 107 106 107 80 59 61 75 68 65 39 36 46 46 81 77 70 73 63 71 66 49 43 60 43 33 16 41 45 7 35 46 51 42 13 18 27 6 341 321 304 330 338 358 37 185 237 205 202 205 206 210 214
152 146 146 141 157 145 152 153 148 146 132 136 142 115 100 126 95 43 57 76 65 39 44 71 45 48 72 75 84 78 69 72 78 72 67 49 45 34 345 21 28 44 52 43 33 357 347 334 325 318 337 348 340 322 321 289 226 216 222 217 204 210 208
150 150 146 155 160 150 157 155 164 144 144 146 133 124 142 135 148 109 63 68 82 87 75 41 32 29 118 104 76 90 94 80 75 78 78 75 50 39 9 33 14 57 31 63 1 325 7 19 7 13 346 332 333 317 306 294 286 282 245 226 207 213 198
152 159 150 155 163 161 161 152 185 144 147 150 148 131 147 167 116 125 114 111 103 86 87 117 118 84 44 75 78 71 73 70 82 85 70 70 69 55 43 1 339 67 23 23 2 34 22 33 10 6 353 343 338 320 334 336 334 329 350 356 11 30 43
163 159 163 149 162 176 158 152 185 148 147 145 146 142 151 169 139 137 130 132 137 132 118 120 181 100 50 100 110 102 110 142 147 123 125 100 80 83 58 345 35 74 49 9 31 39 35 7 8 357 352 346 354 339 341 330 338 334 8 5 352 8 20
166 164 178 156 158 178 155 147 176 161 144 139 144 141 163 173 143 156 158 145 141 152 147 184 71 98 183 110 105 118 93 62 67 64 70 104 89 62 28 22 14 80 39 6 60 37 39 18 3 347 336 354 356 334 334 338 329 347 345 343 339 349 14
165 167 176 162 151 159 161 146 161 162 152 144 140 144 167 168 157 169 165 146 170 168 179 186 152 110 190 105 123 134 104 105 100 97 80 69 68 67 43 29 356 75 50 360 67 232 142 121 273 279 288 302 357 4 359 332 311 322 313 331 350 350 350
168 166 165 166 147 155 161 163 167 166 167 151 141 143 172 174 166 174 182 163 171 182 183 188 177 141 213 112 162 119 112 176 145 123 95 82 92 96 73 53 3 69 47 357 272 226 78 27 18 345 353 359 348 54 333 315 310 290 15 326 326 337 335
181 168 151 100 109 141 155 165 175 171 179 160 154 156 173 191 180 179 197 180 175 184 190 178 181 170 206 142 176 148 161 214 143 147 137 188 161 145 166 179 104 52 30 344 354 15 338 208 159 201 287 278 298 273 325 280 285 288 315 301 305 316 325
177 168 145 129 137 112 129 193 193 185 159 175 180 162 178 199 193 188 204 195 188 189 185 185 182 172 198 161 189 185 153 206 178 159 136 105 117 137 34 22 132 125 115 332 4 329 300 306 226 200 204 231 242 223 198 246 274 289 299 331 337 321 316
250 244 113 150 155 133 174 208 232 55 116 180 182 184 186 205 204 197 205 203 199 190 191 192 182 187 190 180 185 190 157 198 212 158 134 189 135 107 104 320 13 71 55 16 350 319 356 350 340 335 10 17 3 10 11 354 314 309 299 318 316 323 316
134 128 134 89 122 319 235 230 268 222 237 280 219 190 195 201 220 220 212 216 210 196 194 196 183 195 196 187 190 166 174 191 206 148 156 190 182 144 162 166 210 149 133 105 334 280 306 329 342 339 347 347 331 315 286 260 285 288 293 288 284 288 280
15 12 50 39 7 18 348 325 251 310 298 294 293 284 211 201 221 227 223 220 223 213 200 198 185 199 201 200 191 169 182 191 193 154 172 185 205 144 178 163 182 156 155 184 224 22 302 309 338 2 352 335 339 325 325 321 271 259 265 298 289 305 311
331 314 99 87 65 76 115 245 264 236 248 234 10 14 8 319 262 233 233 225 223 220 211 205 192 195 207 206 190 175 187 197 186 174 183 188 147 132 149 147 224 135 121 82 168 242 17 25 1 351 335 337 324 353 353 344 336 327 316 301 296 281 285
163 183 137 103 102 308 245 333 323 6 5 23 322 214 243 257 282 273 243 238 236 227 214 201 201 191 201 204 185 182 185 200 186 190 185 172 144 164 165 161 162 121 197 149 79 39 34 1 13 338 335 336 324 314 318 321 314 306 303 296 306 307 302
153 138 138 167 193 193 178 164 142 169 187 241 253 276 269 330 310 278 265 246 240 244 239 224 210 199 187 203 190 187 178 190 185 198 180 171 165 157 161 172 161 104 91 169 123 55 47 33 26 2 351 348 340 344 338 325 323 317 305 294 288 281 286
28 30 23 36 183 198 182 178 201 205 200 209 206 208 210 195 231 256 289 313 318 297 278 263 277 244 202 205 184 184 171 185 180 193 173 176 175 140 144 151 135 158 148 69 71 64 52 36 24 353 340 336 329 329 320 316 308 300 299 295 292 296 290
56 265 264 256 267 260 196 188 191 187 190 199 216 224 203 214 233 244 245 276 344 25 11 328 293 258 227 209 184 181 169 177 174 175 170 173 158 139 154 162 161 134 106 113 104 103 103 105 31 309 327 359 359 353 341 336 327 320 312 309 304 307 307
195 204 216 221 218 219 226 208 198 200 202 199 202 219 226 223 229 233 251 260 222 179 201 219 243 258 230 210 184 164 158 168 177 175 158 182 167 164 194 169 137 121 131 130 127 118 142 169 203 225 269 340 332 342 333 321 309 308 306 303 300 307 304
191 202 199 209 204 209 208 207 196 190 200 200 197 204 214 224 222 208 196 217 239 221 223 239 253 274 230 197 168 157 150 153 177 165 158 182 161 183 198 198 144 152 139 145 146 166 188 206 210 223 235 226 230 237 292 286 284 287 290 286 291 294 289
290 281 282 265 257 254 264 256 258 272 238 190 197 196 199 211 215 201 180 194 237 243 224 208 225 229 194 168 142 146 141 141 158 160 169 177 170 182 192 203 174 151 166 164 183 186 206 217 220 223 224 233 242 242 228 227 255 275 269 275 279 282 295
238 246 272 328 335 344 317 308 292 277 252 272 257 201 209 224 232 226 177 188 208 210 173 181 181 175 160 135 133 132 124 130 146 163 158 184 194 190 186 172 168 164 192 187 192 187 187 213 228 221 223 236 248 248 250 248 245 245 252 256 265 269 263
283 291 319 334 354 333 332 309 317 296 302 275 266 269 221 214 243 244 235 169 193 168 146 175 157 148 131 122 118 114 112 128 139 169 195 187 177 99 86 112 170 188 157 165 203 206 223 231 165 201 221 231 234 241 241 245 248 246 242 249 257 264 268
333 360 352 323 302 282 274 280 274 274 276 272 252 250 222 212 216 230 238 200 140 115 162 160 144 133 122 110 102 98 89 139 143 147 117 97 108 149 189 158 233 314 329 281 214 149 210 116 102 228 215 262 272 287 286 273 240 233 243 238 239 246 254
226 313 301 318 317 307 309 308 310 302 280 258 269 282 293 219 200 216 214 168 116 138 127 155 137 123 109 102 99 84 81 96 94 104 103 129 181 191 228 210 212 230 229 238 118 122 135 225 264 265 256 254 265 271 271 268 270 274 260 234 225 231 236
296 259 271 278 275 291 297 302 299 298 290 276 249 235 251 275 261 241 227 171 123 123 129 143 132 119 112 110 106 106 100 101 97 76 162 202 198 200 221 219 219 222 226 202 146 150 170 166 216 241 256 265 265 270 269 277 277 275 273 272 274 276 274
240 255 272 279 290 290 296 292 287 276 282 277 253 237 218 242 238 239 264 134 135 132 134 140 134 117 111 107 103 104 104 118 151 177 216 211 219 222 220 218 213 216 215 190 167 162 158 135 249 266 269 276 282 279 280 287 290 285 293 307 320 315 304
276 278 280 276 280 279 278 277 266 263 259 261 260 252 248 254 234 56 60 87 102 108 110 118 125 117 109 80 57 45 99 182 174 207 214 211 203 210 251 194 206 71 63 81 84 67 37 13 334 327 322 314 293 287 291 314 321 331 337 325 310 312 307
221 225 238 245 251 263 267 264 268 280 288 278 272 256 235 218 86 85 84 99 106 124 127 128 129 113 94 75 57 42 7 57 46 28 22 3 341 356 356 35 59 83 86 78 81 73 65 48 20 344 339 312 299 288 342 340 318 311 303 296 291 289 287
247 233 221 227 238 247 254 272 282 277 276 273 259 57 69 83 96 89 94 96 114 121 135 129 112 106 93 76 53 51 53 43 30 15 16 1 8 353 326 59 66 78 96 98 97 121 109 62 222 294 273 263 263 296 322 305 306 302 293 292 289 288 287
250 245 237 240 254 276 286 287 281 275 260 261 254 95 97 92 95 91 88 101 105 111 103 114 119 101 94 86 73 52 57 57 37 27 23 353 342 322 302 77 121 82 75 89 45 10 258 256 237 232 251 252 269 275 278 280 290 289 287 293 298 296 295
256 245 244 240 238 239 253 269 273 275 275 275 88 108 93 103 102 102 97 95 110 111 117 120 127 119 113 106 98 70 63 51 49 32 339 280 275 293 294 97 128 135 141 162 197 229 238 244 243 230 234 246 256 266 274 273 268 279 286 288 293 291 290
249 245 242 231 216 218 226 240 256 268 290 267 118 108 106 104 106 110 117 110 108 116 116 125 133 131 133 132 126 146 167 187 208 260 323 280 299 294 313 25 26 85 156 292 298 304 305 293 276 272 276 276 274 275 271 269 266 264 266 269 267 270 269